| time (UTC) | temp C | wind direction | speed KPH | gust KPH | rain 1hr cm | rain 24hr cm | rain mn cm | humidity % | barometer mb |
| 20260505130109 | 8 | 206 | 6.4 | 14.5 | 0.00 | 0.00 | 0.00 | 54 | 1008.3 |
| 20260505124608 | 7 | 282 | 6.4 | 19.3 | 0.00 | 0.00 | 0.00 | 56 | 1008.2 |
| 20260505124048 | 7 | 235 | 8.0 | 19.3 | 0.00 | 0.00 | 0.00 | 56 | 1008.2 |
| 20260505123548 | 7 | 223 | 6.4 | 17.7 | 0.00 | 0.00 | 0.00 | 57 | 1008.1 |
| 20260505123116 | 7 | 240 | 9.7 | 19.3 | 0.00 | 0.00 | 0.00 | 58 | 1008.2 |
| 20260505122550 | 7 | 222 | 11.3 | 19.3 | 0.00 | 0.00 | 0.00 | 57 | 1008.1 |
| 20260505122049 | 7 | 231 | 8.0 | 17.7 | 0.00 | 0.00 | 0.00 | 57 | 1007.9 |
| 20260505121555 | 7 | 227 | 4.8 | 16.1 | 0.00 | 0.00 | 0.00 | 58 | 1007.8 |
| 20260505121050 | 7 | 290 | 3.2 | 16.1 | 0.00 | 0.00 | 0.00 | 57 | 1007.7 |
| 20260505120549 | 6 | 259 | 3.2 | 16.1 | 0.00 | 0.00 | 0.00 | 58 | 1007.6 |
| 20260505120108 | 6 | 225 | 6.4 | 12.9 | 0.00 | 0.00 | 0.00 | 59 | 1007.7 |
| 20260505115549 | 6 | 255 | 6.4 | 11.3 | 0.00 | 0.00 | 0.00 | 60 | 1007.4 |
| 20260505115048 | 6 | 245 | 8.0 | 11.3 | 0.00 | 0.00 | 0.00 | 61 | 1007.2 |
| 20260505114558 | 6 | 222 | 6.4 | 11.3 | 0.00 | 0.00 | 0.00 | 62 | 1006.9 |
| 20260505114049 | 5 | 228 | 3.2 | 6.4 | 0.00 | 0.00 | 0.00 | 65 | 1006.7 |
| 20260505113552 | 5 | 229 | 3.2 | 14.5 | 0.00 | 0.00 | 0.00 | 67 | 1006.7 |
| 20260505113104 | 5 | 266 | 0.0 | 14.5 | 0.00 | 0.00 | 0.00 | 69 | 1006.6 |
| 20260505112549 | 5 | 242 | 0.0 | 1.6 | 0.00 | 0.00 | 0.00 | 70 | 1006.4 |
| 20260505112049 | 4 | 0 | 0.0 | 1.6 | 0.00 | 0.00 | 0.00 | 69 | 1006.1 |
| 20260505111556 | 4 | 242 | 0.0 | 1.6 | 0.00 | 0.00 | 0.00 | 70 | 1006.2 |
| 20260505111050 | 4 | 242 | 0.0 | 1.6 | 0.00 | 0.00 | 0.00 | 70 | 1006.2 |
| 20260505110549 | 3 | 242 | 0.0 | 1.6 | 0.00 | 0.00 | 0.00 | 71 | 1006.3 |
| 20260505102048 | 5 | 242 | 0.0 | 1.6 | 0.00 | 0.00 | 0.00 | 71 | 1006.0 |
| 20260505101555 | 5 | 242 | 1.6 | 1.6 | 0.00 | 0.00 | 0.00 | 71 | 1006.1 |
| 20260505101048 | 5 | 242 | 0.0 | 1.6 | 0.00 | 0.00 | 0.00 | 71 | 1006.0 |
| 20260505100548 | 5 | 0 | 0.0 | 1.6 | 0.00 | 0.00 | 0.00 | 70 | 1006.0 |
| 20260505100050 | 5 | 0 | 0.0 | 1.6 | 0.00 | 0.00 | 0.00 | 68 | 1005.9 |
| 20260505095544 | 5 | 245 | 0.0 | 0.0 | 0.00 | 0.00 | 0.00 | 68 | 1005.9 |
| 20260505095052 | 5 | 0 | 0.0 | 0.0 | 0.00 | 0.00 | 0.00 | 66 | 1005.9 |
| 20260505094601 | 5 | 0 | 0.0 | 0.0 | 0.00 | 0.00 | 0.00 | 65 | 1005.9 |
| 20260505094049 | 5 | 0 | 0.0 | 0.0 | 0.00 | 0.00 | 0.00 | 64 | 1005.8 |
| 20260505093550 | 6 | 0 | 0.0 | 0.0 | 0.00 | 0.00 | 0.00 | 62 | 1005.9 |
| 20260505093056 | 6 | 0 | 0.0 | 0.0 | 0.00 | 0.00 | 0.00 | 62 | 1005.9 |
| 20260505092548 | 6 | 0 | 0.0 | 0.0 | 0.00 | 0.00 | 0.00 | 61 | 1005.9 |
| 20260505092049 | 6 | 0 | 0.0 | 0.0 | 0.00 | 0.00 | 0.00 | 61 | 1006.0 |
| 20260505091551 | 6 | 0 | 0.0 | 0.0 | 0.00 | 0.00 | 0.00 | 61 | 1005.8 |
| 20260505091050 | 6 | 0 | 0.0 | 1.6 | 0.00 | 0.00 | 0.00 | 59 | 1005.8 |
| 20260505090548 | 6 | 0 | 0.0 | 1.6 | 0.00 | 0.00 | 0.00 | 59 | 1005.9 |
| 20260505090058 | 6 | 0 | 0.0 | 1.6 | 0.00 | 0.00 | 0.00 | 59 | 1005.9 |
| 20260505085548 | 6 | 0 | 0.0 | 3.2 | 0.00 | 0.00 | 0.00 | 59 | 1005.8 |
| 20260505085048 | 6 | 0 | 0.0 | 3.2 | 0.00 | 0.00 | 0.00 | 59 | 1005.7 |
| 20260505084600 | 6 | 245 | 0.0 | 3.2 | 0.00 | 0.00 | 0.00 | 59 | 1005.6 |
| 20260505084049 | 6 | 0 | 0.0 | 4.8 | 0.00 | 0.00 | 0.00 | 59 | 1005.5 |
| 20260505083547 | 7 | 245 | 0.0 | 6.4 | 0.00 | 0.00 | 0.00 | 58 | 1005.6 |
| 20260505083106 | 7 | 240 | 0.0 | 6.4 | 0.00 | 0.00 | 0.00 | 58 | 1005.4 |
| 20260505082547 | 7 | 302 | 1.6 | 6.4 | 0.00 | 0.00 | 0.00 | 58 | 1005.3 |
| 20260505082048 | 7 | 255 | 0.0 | 4.8 | 0.00 | 0.00 | 0.00 | 58 | 1004.9 |
| 20260505081553 | 7 | 255 | 0.0 | 4.8 | 0.00 | 0.00 | 0.00 | 57 | 1004.8 |
| 20260505081048 | 7 | 255 | 1.6 | 9.7 | 0.00 | 0.00 | 0.00 | 57 | 1004.8 |
| 20260505080546 | 7 | 253 | 3.2 | 9.7 | 0.00 | 0.00 | 0.00 | 57 | 1004.7 |
| 20260505080056 | 7 | 309 | 4.8 | 9.7 | 0.00 | 0.00 | 0.00 | 56 | 1004.5 |
| 20260505075548 | 7 | 25 | 3.2 | 8.0 | 0.00 | 0.00 | 0.00 | 56 | 1004.4 |
| 20260505075048 | 7 | 321 | 3.2 | 12.9 | 0.00 | 0.00 | 0.00 | 55 | 1004.2 |
| 20260505074556 | 7 | 324 | 6.4 | 12.9 | 0.00 | 0.00 | 0.00 | 55 | 1004.0 |
| 20260505074045 | 8 | 311 | 6.4 | 16.1 | 0.00 | 0.00 | 0.00 | 54 | 1004.0 |
| 20260505073548 | 8 | 339 | 4.8 | 16.1 | 0.00 | 0.00 | 0.00 | 53 | 1004.2 |
| 20260505073056 | 8 | 301 | 4.8 | 17.7 | 0.00 | 0.00 | 0.00 | 52 | 1004.2 |
| 20260505072550 | 8 | 316 | 6.4 | 17.7 | 0.00 | 0.00 | 0.00 | 51 | 1003.9 |
| 20260505072046 | 8 | 281 | 6.4 | 22.5 | 0.00 | 0.00 | 0.00 | 51 | 1003.9 |
| 20260505071554 | 8 | 288 | 6.4 | 22.5 | 0.00 | 0.00 | 0.00 | 51 | 1004.0 |
| 20260505071048 | 8 | 323 | 9.7 | 22.5 | 0.00 | 0.00 | 0.00 | 52 | 1004.0 |
| 20260505070547 | 8 | 338 | 4.8 | 22.5 | 0.00 | 0.00 | 0.00 | 53 | 1004.0 |
| 20260505065548 | 8 | 316 | 8.0 | 19.3 | 0.00 | 0.00 | 0.00 | 54 | 1003.6 |
| 20260505065047 | 8 | 318 | 6.4 | 22.5 | 0.00 | 0.00 | 0.00 | 54 | 1003.5 |
| 20260505064556 | 8 | 25 | 9.7 | 22.5 | 0.00 | 0.00 | 0.00 | 53 | 1003.5 |
| 20260505064048 | 8 | 320 | 3.2 | 20.9 | 0.00 | 0.00 | 0.00 | 52 | 1003.4 |
| 20260505063548 | 8 | 326 | 6.4 | 16.1 | 0.00 | 0.00 | 0.00 | 52 | 1003.3 |
| 20260505063052 | 9 | 307 | 6.4 | 14.5 | 0.00 | 0.00 | 0.00 | 51 | 1003.3 |
| 20260505062548 | 9 | 295 | 4.8 | 14.5 | 0.00 | 0.00 | 0.00 | 51 | 1003.2 |
| 20260505062052 | 9 | 316 | 4.8 | 12.9 | 0.00 | 0.00 | 0.00 | 50 | 1003.2 |
| 20260505061613 | 9 | 330 | 6.4 | 24.1 | 0.00 | 0.00 | 0.00 | 50 | 1003.3 |
| 20260505061049 | 9 | 266 | 9.7 | 24.1 | 0.00 | 0.00 | 0.00 | 49 | 1003.2 |
| 20260505060548 | 10 | 316 | 8.0 | 24.1 | 0.00 | 0.00 | 0.00 | 49 | 1003.2 |
| 20260505060056 | 10 | 302 | 8.0 | 22.5 | 0.00 | 0.00 | 0.00 | 50 | 1003.3 |
| 20260505055550 | 10 | 252 | 6.4 | 22.5 | 0.00 | 0.00 | 0.00 | 50 | 1003.3 |
| 20260505055047 | 10 | 288 | 4.8 | 22.5 | 0.00 | 0.00 | 0.00 | 50 | 1003.3 |
| 20260505054555 | 10 | 321 | 8.0 | 22.5 | 0.00 | 0.00 | 0.00 | 50 | 1003.2 |
| 20260505054048 | 10 | 279 | 11.3 | 19.3 | 0.00 | 0.00 | 0.00 | 49 | 1003.1 |
| 20260505053548 | 10 | 323 | 8.0 | 19.3 | 0.00 | 0.00 | 0.00 | 50 | 1003.0 |
| 20260505053056 | 10 | 295 | 6.4 | 17.7 | 0.00 | 0.00 | 0.00 | 51 | 1003.0 |
| 20260505052549 | 10 | 328 | 8.0 | 20.9 | 0.00 | 0.00 | 0.00 | 51 | 1002.9 |
| 20260505052047 | 11 | 321 | 8.0 | 27.4 | 0.00 | 0.00 | 0.00 | 51 | 1002.9 |
| 20260505051551 | 11 | 292 | 8.0 | 27.4 | 0.00 | 0.00 | 0.00 | 51 | 1002.8 |
| 20260505051048 | 11 | 300 | 11.3 | 22.5 | 0.00 | 0.00 | 0.00 | 51 | 1002.7 |
| 20260505050548 | 11 | 317 | 8.0 | 22.5 | 0.00 | 0.00 | 0.00 | 52 | 1002.6 |
| 20260505041603 | 12 | 252 | 4.8 | 9.7 | 0.00 | 0.00 | 0.00 | 48 | 1001.4 |
| 20260505041048 | 12 | 279 | 4.8 | 11.3 | 0.00 | 0.00 | 0.00 | 48 | 1001.4 |
| 20260505040548 | 12 | 295 | 6.4 | 16.1 | 0.00 | 0.00 | 0.00 | 48 | 1001.4 |
| 20260505035549 | 12 | 271 | 8.0 | 16.1 | 0.00 | 0.00 | 0.00 | 47 | 1001.4 |
| 20260505035052 | 13 | 262 | 6.4 | 12.9 | 0.00 | 0.00 | 0.00 | 47 | 1001.3 |
| 20260505034556 | 13 | 269 | 4.8 | 11.3 | 0.00 | 0.00 | 0.00 | 46 | 1001.3 |
| 20260505034049 | 13 | 301 | 6.4 | 11.3 | 0.00 | 0.00 | 0.00 | 46 | 1001.3 |
| 20260505033549 | 13 | 274 | 4.8 | 9.7 | 0.00 | 0.00 | 0.00 | 45 | 1001.1 |
| 20260505033100 | 13 | 282 | 3.2 | 8.0 | 0.00 | 0.00 | 0.00 | 45 | 1001.0 |
| 20260505032549 | 13 | 264 | 1.6 | 8.0 | 0.00 | 0.00 | 0.00 | 45 | 1001.1 |
| 20260505032051 | 13 | 248 | 3.2 | 8.0 | 0.00 | 0.00 | 0.00 | 44 | 1001.1 |
| 20260505031556 | 13 | 279 | 3.2 | 11.3 | 0.00 | 0.00 | 0.00 | 44 | 1000.9 |
| 20260505031048 | 13 | 260 | 3.2 | 16.1 | 0.00 | 0.00 | 0.00 | 43 | 1000.9 |
| 20260505030553 | 14 | 271 | 6.4 | 16.1 | 0.00 | 0.00 | 0.00 | 43 | 1000.8 |
| 20260505030055 | 14 | 252 | 6.4 | 14.5 | 0.00 | 0.00 | 0.00 | 42 | 1000.8 |
| 20260505025548 | 14 | 285 | 6.4 | 14.5 | 0.00 | 0.00 | 0.00 | 42 | 1000.6 |
| 20260505025048 | 14 | 265 | 6.4 | 14.5 | 0.00 | 0.00 | 0.00 | 41 | 1000.7 |
| 20260505024555 | 14 | 220 | 6.4 | 14.5 | 0.00 | 0.00 | 0.00 | 41 | 1000.6 |
| 20260505024048 | 15 | 274 | 4.8 | 19.3 | 0.00 | 0.00 | 0.00 | 40 | 1000.4 |
| 20260505023549 | 15 | 274 | 9.7 | 19.3 | 0.00 | 0.00 | 0.00 | 39 | 1000.2 |
| 20260505023054 | 15 | 279 | 11.3 | 19.3 | 0.00 | 0.00 | 0.00 | 38 | 999.9 |
| 20260505022549 | 15 | 219 | 9.7 | 17.7 | 0.00 | 0.00 | 0.00 | 38 | 999.6 |
| 20260505022052 | 15 | 259 | 8.0 | 16.1 | 0.00 | 0.00 | 0.00 | 38 | 999.5 |
| 20260505021556 | 15 | 276 | 8.0 | 16.1 | 0.00 | 0.00 | 0.00 | 39 | 999.4 |
| 20260505021048 | 15 | 254 | 6.4 | 11.3 | 0.00 | 0.00 | 0.00 | 40 | 999.2 |
| 20260505020549 | 15 | 27 | 1.6 | 16.1 | 0.00 | 0.00 | 0.00 | 42 | 998.8 |
| 20260505020053 | 15 | 272 | 4.8 | 16.1 | 0.00 | 0.00 | 0.00 | 42 | 998.6 |
| 20260505015549 | 15 | 290 | 6.4 | 16.1 | 0.00 | 0.00 | 0.00 | 42 | 998.9 |
| 20260505015049 | 15 | 285 | 4.8 | 9.7 | 0.00 | 0.00 | 0.00 | 44 | 999.0 |
| 20260505014553 | 15 | 278 | 3.2 | 8.0 | 0.00 | 0.00 | 0.00 | 43 | 999.0 |
| 20260505014049 | 16 | 275 | 4.8 | 11.3 | 0.00 | 0.00 | 0.00 | 43 | 999.0 |
| 20260505013548 | 16 | 271 | 8.0 | 11.3 | 0.00 | 0.00 | 0.00 | 42 | 999.0 |
| 20260505013054 | 16 | 300 | 4.8 | 11.3 | 0.00 | 0.00 | 0.00 | 42 | 998.9 |
| 20260505012548 | 16 | 259 | 4.8 | 12.9 | 0.00 | 0.00 | 0.00 | 41 | 998.8 |
| 20260505012048 | 16 | 261 | 6.4 | 12.9 | 0.00 | 0.00 | 0.00 | 40 | 998.7 |
| 20260505011552 | 16 | 269 | 8.0 | 19.3 | 0.00 | 0.00 | 0.00 | 40 | 998.7 |
| 20260505011051 | 17 | 251 | 8.0 | 25.7 | 0.00 | 0.00 | 0.00 | 39 | 998.5 |
| 20260505010549 | 17 | 253 | 6.4 | 25.7 | 0.00 | 0.00 | 0.00 | 39 | 998.4 |
| 20260505005549 | 17 | 271 | 9.7 | 20.9 | 0.00 | 0.00 | 0.00 | 39 | 998.1 |
| 20260505005048 | 17 | 53 | 11.3 | 24.1 | 0.00 | 0.00 | 0.00 | 38 | 998.0 |
| 20260505004550 | 17 | 316 | 11.3 | 24.1 | 0.00 | 0.00 | 0.00 | 38 | 997.7 |
| 20260505004050 | 17 | 274 | 8.0 | 17.7 | 0.00 | 0.00 | 0.00 | 39 | 997.6 |
| 20260505003550 | 18 | 221 | 6.4 | 17.7 | 0.00 | 0.00 | 0.00 | 40 | 997.5 |
| 20260505003052 | 18 | 276 | 6.4 | 20.9 | 0.00 | 0.00 | 0.00 | 38 | 997.5 |
| 20260505002549 | 18 | 266 | 6.4 | 20.9 | 0.00 | 0.00 | 0.00 | 38 | 997.4 |
| 20260505002050 | 19 | 269 | 11.3 | 20.9 | 0.00 | 0.00 | 0.00 | 38 | 997.3 |
| 20260505001554 | 19 | 277 | 8.0 | 16.1 | 0.00 | 0.00 | 0.00 | 39 | 997.2 |
| 20260505001049 | 20 | 256 | 9.7 | 22.5 | 0.00 | 0.00 | 0.00 | 38 | 997.1 |
| 20260505000549 | 20 | 285 | 9.7 | 22.5 | 0.00 | 0.00 | 0.00 | 38 | 997.0 |
| 20260505000100 | 20 | 254 | 12.9 | 22.5 | 0.00 | 0.00 | 0.00 | 38 | 996.9 |
| 20260504235549 | 20 | 283 | 9.7 | 24.1 | 0.00 | 0.00 | 0.00 | 38 | 996.9 |
| 20260504235050 | 21 | 267 | 9.7 | 24.1 | 0.00 | 0.00 | 0.00 | 38 | 996.7 |
| 20260504234603 | 21 | 241 | 14.5 | 30.6 | 0.00 | 0.00 | 0.00 | 37 | 996.6 |
| 20260504234053 | 21 | 226 | 19.3 | 30.6 | 0.00 | 0.00 | 0.00 | 37 | 996.6 |
| 20260504233549 | 22 | 253 | 12.9 | 27.4 | 0.00 | 0.00 | 0.00 | 39 | 996.5 |
| 20260504233055 | 22 | 269 | 12.9 | 27.4 | 0.00 | 0.00 | 0.00 | 39 | 996.4 |
| 20260504232549 | 22 | 288 | 11.3 | 22.5 | 0.00 | 0.00 | 0.00 | 39 | 996.3 |
| 20260504232049 | 22 | 276 | 11.3 | 22.5 | 0.00 | 0.00 | 0.00 | 40 | 996.3 |
| 20260504231556 | 22 | 273 | 9.7 | 27.4 | 0.00 | 0.00 | 0.00 | 40 | 996.2 |
| 20260504231048 | 22 | 244 | 16.1 | 27.4 | 0.00 | 0.00 | 0.00 | 39 | 996.2 |
| 20260504230549 | 23 | 274 | 9.7 | 20.9 | 0.00 | 0.00 | 0.00 | 39 | 996.1 |
| 20260504230056 | 23 | 270 | 11.3 | 19.3 | 0.00 | 0.00 | 0.00 | 40 | 996.1 |
| 20260504225549 | 23 | 243 | 6.4 | 17.7 | 0.00 | 0.00 | 0.00 | 40 | 996.1 |
| 20260504225054 | 23 | 288 | 8.0 | 24.1 | 0.00 | 0.00 | 0.00 | 40 | 996.0 |
| 20260504224556 | 23 | 240 | 11.3 | 24.1 | 0.00 | 0.00 | 0.00 | 40 | 996.0 |
| 20260504224049 | 24 | 262 | 11.3 | 38.6 | 0.00 | 0.00 | 0.00 | 38 | 996.0 |
| 20260504223549 | 25 | 243 | 16.1 | 38.6 | 0.00 | 0.00 | 0.00 | 39 | 995.8 |
| 20260504223055 | 25 | 233 | 16.1 | 24.1 | 0.00 | 0.00 | 0.00 | 38 | 995.5 |
| 20260504222549 | 25 | 236 | 14.5 | 25.7 | 0.00 | 0.00 | 0.00 | 38 | 995.5 |
| 20260504222054 | 25 | 284 | 14.5 | 27.4 | 0.00 | 0.00 | 0.00 | 38 | 995.5 |
| 20260504221552 | 25 | 322 | 16.1 | 38.6 | 0.00 | 0.00 | 0.00 | 39 | 995.4 |
| 20260504221049 | 25 | 254 | 19.3 | 45.1 | 0.00 | 0.00 | 0.00 | 38 | 995.3 |
| 20260504220544 | 25 | 228 | 25.7 | 45.1 | 0.00 | 0.00 | 0.00 | 35 | 995.2 |
| 20260504220058 | 25 | 240 | 24.1 | 43.5 | 0.00 | 0.00 | 0.00 | 34 | 995.0 |
| 20260504215547 | 25 | 243 | 17.7 | 30.6 | 0.00 | 0.00 | 0.00 | 36 | 995.2 |
| 20260504215049 | 25 | 251 | 19.3 | 46.7 | 0.00 | 0.00 | 0.00 | 35 | 995.0 |
| 20260504214551 | 25 | 223 | 19.3 | 46.7 | 0.00 | 0.00 | 0.00 | 35 | 995.1 |
| 20260504214048 | 25 | 233 | 27.4 | 46.7 | 0.00 | 0.00 | 0.00 | 34 | 995.1 |
| 20260504213547 | 25 | 248 | 22.5 | 48.3 | 0.00 | 0.00 | 0.00 | 36 | 995.0 |
| 20260504213107 | 25 | 251 | 25.7 | 48.3 | 0.00 | 0.00 | 0.00 | 36 | 995.1 |
| 20260504212548 | 25 | 232 | 19.3 | 38.6 | 0.00 | 0.00 | 0.00 | 35 | 995.2 |
| 20260504212048 | 24 | 236 | 11.3 | 24.1 | 0.00 | 0.00 | 0.00 | 40 | 995.2 |
| 20260504211552 | 23 | 245 | 3.2 | 16.1 | 0.00 | 0.00 | 0.00 | 46 | 995.2 |
| 20260504211048 | 23 | 269 | 4.8 | 30.6 | 0.00 | 0.00 | 0.00 | 44 | 995.3 |
| 20260504210551 | 23 | 264 | 11.3 | 35.4 | 0.00 | 0.00 | 0.00 | 43 | 995.4 |
| 20260504210053 | 23 | 266 | 16.1 | 38.6 | 0.00 | 0.00 | 0.00 | 40 | 995.4 |
| 20260504205547 | 24 | 244 | 19.3 | 38.6 | 0.00 | 0.00 | 0.00 | 36 | 995.6 |
| 20260504205048 | 24 | 240 | 19.3 | 38.6 | 0.00 | 0.00 | 0.00 | 34 | 995.6 |
| 20260504204600 | 24 | 223 | 24.1 | 38.6 | 0.00 | 0.00 | 0.00 | 35 | 995.6 |
| 20260504204045 | 24 | 240 | 14.5 | 33.8 | 0.00 | 0.00 | 0.00 | 35 | 995.6 |
| 20260504203548 | 25 | 243 | 17.7 | 35.4 | 0.00 | 0.00 | 0.00 | 35 | 995.6 |
| 20260504203050 | 25 | 231 | 22.5 | 35.4 | 0.00 | 0.00 | 0.00 | 36 | 995.7 |
| 20260504202548 | 25 | 252 | 19.3 | 38.6 | 0.00 | 0.00 | 0.00 | 35 | 995.7 |
| 20260504202048 | 25 | 246 | 11.3 | 38.6 | 0.00 | 0.00 | 0.00 | 37 | 995.8 |
| 20260504201557 | 25 | 221 | 24.1 | 38.6 | 0.00 | 0.00 | 0.00 | 35 | 995.9 |
| 20260504201047 | 25 | 223 | 20.9 | 38.6 | 0.00 | 0.00 | 0.00 | 36 | 995.9 |
| 20260504200547 | 25 | 222 | 20.9 | 32.2 | 0.00 | 0.00 | 0.00 | 38 | 995.9 |
| 20260504200054 | 25 | 225 | 24.1 | 43.5 | 0.00 | 0.00 | 0.00 | 37 | 996.0 |
| 20260504195548 | 25 | 237 | 22.5 | 43.5 | 0.00 | 0.00 | 0.00 | 37 | 996.0 |
| 20260504195048 | 24 | 231 | 27.4 | 43.5 | 0.00 | 0.00 | 0.00 | 38 | 996.0 |
| 20260504194556 | 24 | 242 | 25.7 | 43.5 | 0.00 | 0.00 | 0.00 | 38 | 996.2 |
| 20260504194048 | 24 | 244 | 22.5 | 37.0 | 0.00 | 0.00 | 0.00 | 38 | 996.1 |
| 20260504193548 | 23 | 238 | 20.9 | 38.6 | 0.00 | 0.00 | 0.00 | 39 | 996.1 |
| 20260504193103 | 23 | 244 | 20.9 | 38.6 | 0.00 | 0.00 | 0.00 | 38 | 996.2 |
| 20260504192548 | 23 | 246 | 20.9 | 38.6 | 0.00 | 0.00 | 0.00 | 38 | 996.3 |
| 20260504192050 | 23 | 225 | 27.4 | 43.5 | 0.00 | 0.00 | 0.00 | 38 | 996.3 |
| 20260504191553 | 24 | 244 | 22.5 | 43.5 | 0.00 | 0.00 | 0.00 | 39 | 996.3 |
| 20260504191047 | 24 | 234 | 20.9 | 41.8 | 0.00 | 0.00 | 0.00 | 39 | 996.3 |
| 20260504190547 | 23 | 260 | 22.5 | 45.1 | 0.00 | 0.00 | 0.00 | 38 | 996.3 |
| 20260504190059 | 23 | 232 | 25.7 | 45.1 | 0.00 | 0.00 | 0.00 | 38 | 996.5 |
| 20260504185547 | 23 | 231 | 25.7 | 43.5 | 0.00 | 0.00 | 0.00 | 38 | 996.6 |
| 20260504185048 | 23 | 233 | 17.7 | 43.5 | 0.00 | 0.00 | 0.00 | 39 | 996.7 |
| 20260504184550 | 23 | 243 | 27.4 | 48.3 | 0.00 | 0.00 | 0.00 | 38 | 996.7 |
| 20260504184048 | 24 | 241 | 30.6 | 48.3 | 0.00 | 0.00 | 0.00 | 38 | 996.7 |
| 20260504183547 | 24 | 215 | 24.1 | 48.3 | 0.00 | 0.00 | 0.00 | 38 | 996.6 |
| 20260504183100 | 23 | 255 | 29.0 | 48.3 | 0.00 | 0.00 | 0.00 | 37 | 996.7 |
| 20260504182548 | 24 | 245 | 24.1 | 43.5 | 0.00 | 0.00 | 0.00 | 37 | 996.7 |
| 20260504182048 | 23 | 226 | 22.5 | 53.1 | 0.00 | 0.00 | 0.00 | 37 | 996.5 |
| 20260504181558 | 23 | 213 | 32.2 | 53.1 | 0.00 | 0.00 | 0.00 | 36 | 996.7 |
| 20260504181048 | 23 | 259 | 27.4 | 46.7 | 0.00 | 0.00 | 0.00 | 37 | 996.7 |
| 20260504180548 | 23 | 226 | 27.4 | 46.7 | 0.00 | 0.00 | 0.00 | 35 | 996.8 |
| 20260504180130 | 23 | 193 | 20.9 | 53.1 | 0.00 | 0.00 | 0.00 | 36 | 996.7 |
| 20260504175547 | 23 | 236 | 25.7 | 53.1 | 0.00 | 0.00 | 0.00 | 36 | 996.8 |
| 20260504175047 | 23 | 252 | 24.1 | 38.6 | 0.00 | 0.00 | 0.00 | 36 | 996.7 |
| 20260504174556 | 23 | 216 | 22.5 | 45.1 | 0.00 | 0.00 | 0.00 | 37 | 996.7 |
| 20260504174047 | 23 | 213 | 25.7 | 46.7 | 0.00 | 0.00 | 0.00 | 37 | 996.7 |
| 20260504173544 | 23 | 212 | 22.5 | 46.7 | 0.00 | 0.00 | 0.00 | 36 | 996.7 |